TimeMST,TemperatureF,Dew PointF,Humidity,Sea Level PressureIn,VisibilityMPH,Wind Direction,Wind SpeedMPH,Gust SpeedMPH,PrecipitationIn,Events,Conditions,WindDirDegrees,DateUTC
1:53 AM,23.0,19.0,85,30.29,10.0,SSW,10.4,-,N/A,,Clear,200,2013-01-09 08:53:00
2:53 AM,19.9,16.0,85,30.32,10.0,WNW,4.6,-,N/A,,Clear,300,2013-01-09 09:53:00
3:53 AM,19.0,15.1,85,30.35,10.0,West,9.2,-,N/A,,Clear,280,2013-01-09 10:53:00
4:53 AM,18.0,14.0,84,30.38,10.0,West,6.9,-,N/A,,Clear,270,2013-01-09 11:53:00
6:53 AM,18.0,14.0,84,30.46,10.0,SSW,11.5,-,N/A,,Clear,210,2013-01-09 13:53:00
8:53 AM,19.9,16.0,85,30.51,10.0,West,6.9,-,N/A,,Clear,260,2013-01-09 15:53:00
9:53 AM,27.0,19.0,72,30.48,10.0,NW,3.5,-,N/A,,Clear,310,2013-01-09 16:53:00
10:53 AM,37.0,21.0,52,30.43,10.0,West,4.6,-,N/A,,Clear,270,2013-01-09 17:53:00
11:53 AM,43.0,21.0,42,30.38,10.0,West,5.8,-,N/A,,Clear,280,2013-01-09 18:53:00
12:53 PM,46.9,21.9,37,30.32,10.0,Calm,Calm,-,N/A,,Clear,0,2013-01-09 19:53:00
1:53 PM,50.0,23.0,35,30.28,10.0,ESE,3.5,-,N/A,,Clear,110,2013-01-09 20:53:00
2:53 PM,53.1,23.0,31,30.26,10.0,ESE,3.5,-,N/A,,Clear,120,2013-01-09 21:53:00
3:53 PM,48.0,27.0,44,30.26,10.0,ESE,11.5,-,N/A,,Clear,120,2013-01-09 22:53:00
4:53 PM,41.0,28.0,60,30.27,10.0,SE,11.5,-,N/A,,Clear,130,2013-01-09 23:53:00
5:53 PM,39.9,27.0,60,30.27,10.0,SSE,17.3,-,N/A,,Clear,150,2013-01-10 00:53:00
6:53 PM,37.0,27.0,67,30.29,10.0,SSE,15.0,-,N/A,,Clear,150,2013-01-10 01:53:00
7:53 PM,34.0,27.0,75,30.28,10.0,SSE,12.7,-,N/A,,Clear,150,2013-01-10 02:53:00
8:53 PM,30.9,26.1,82,30.27,10.0,SSE,10.4,-,N/A,,Clear,160,2013-01-10 03:53:00
9:53 PM,32.0,25.0,75,30.24,10.0,Calm,Calm,-,N/A,,Clear,0,2013-01-10 04:53:00
10:53 PM,33.1,27.0,78,30.23,10.0,Calm,Calm,-,N/A,,Partly Cloudy,0,2013-01-10 05:53:00
11:53 PM,34.0,28.9,82,30.17,10.0,North,3.5,-,0.00,,Overcast,360,2013-01-10 06:53:00